Newport Airport, OR

5:48 PM PDT on October 19, 2017 (GMT -0700)
Newport Municipal

Weather History for KONP - November, 2014

Change the Weather History Date:

Friday, November 14, 2014

  Actual Average Record
Temperature  
Mean Temperature 40 °F -  
Max Temperature 46 °F 53 °F 68 °F (1999)
Min Temperature 33 °F 44 °F 33 °F (2014)
Degree Days  
Heating Degree Days 26    
Moisture  
Dew Point 35 °F    
Average Humidity 88    
Maximum Humidity 100    
Minimum Humidity 71    
Precipitation  
Precipitation 0.26 in - - ()
Sea Level Pressure  
Sea Level Pressure 30.07 in    
Wind  
Wind Speed 10 mph (ENE)    
Max Wind Speed 17 mph    
Max Gust Speed 23 mph    
Visibility 10 miles    
Events Rain    
Averages and records for this station are not official NWS values.
T = Trace of Precipitation, MM = Missing Value Source: NWS Daily Summary

Daily Weather History Graph

Daily Weather History Graph

Search for Another Location

Airport or City:

Trip Planner

Search our weather history database for the weather conditions in past years. The results will help you decide how hot, cold, wet, or windy it might be!

Date:

Astronomy

Nov. 14, 2014 Rise Set
Actual Time 7:11 AM PST 4:49 PM PST
Civil Twilight 6:40 AM PST 5:20 PM PST
Nautical Twilight 6:04 AM PST 5:56 PM PST
Astronomical Twilight 5:30 AM PST 6:30 PM PST
Moon No Moon Rise 1:00 PM PST (11/14)
Length of Visible Light 10h 40m
Length of Day
9h 37m
Waning Gibbous, 48% of the Moon is Illuminated
Nov 14
Waning Gibbous
Nov 22
New
Nov 29
First Quarter
Dec 6
Full
Dec 14
Last Quarter

Hourly Weather History & Observations

Time (PST) Temp. Windchill Dew Point Humidity Pressure Visibility Wind Dir Wind Speed Gust Speed Precip Events Conditions
12:15 AM 37.4 °F 30.3 °F 37.4 °F 100% 29.95 in 7.0 mi ENE 10.4 mph - 0.01 in Rain Rain
12:35 AM 37.4 °F 29.8 °F 37.4 °F 100% 29.95 in 5.0 mi East 11.5 mph - 0.05 in Rain Light Rain
12:55 AM 37.4 °F 29.3 °F 37.4 °F 100% 29.95 in 5.0 mi East 12.7 mph - 0.10 in Rain Light Rain
1:15 AM 37.4 °F 29.8 °F 37.4 °F 100% 29.95 in 10.0 mi East 11.5 mph - 0.02 in Rain Light Rain
1:35 AM 37.4 °F 30.3 °F 37.4 °F 100% 29.96 in 7.0 mi East 10.4 mph - 0.02 in Rain Light Rain
1:55 AM 37.4 °F 30.3 °F 37.4 °F 100% 29.95 in 7.0 mi East 10.4 mph - 0.02 in Rain Light Rain
2:15 AM 37.4 °F 30.8 °F 37.4 °F 100% 29.96 in 10.0 mi East 9.2 mph - 0.01 in Rain Light Rain
2:35 AM 37.4 °F 29.8 °F 37.4 °F 100% 29.96 in 10.0 mi East 11.5 mph - 0.01 in Rain Light Rain
2:55 AM 37.4 °F 29.3 °F 37.4 °F 100% 29.96 in 7.0 mi East 12.7 mph - 0.02 in Rain Light Rain
3:15 AM 37.4 °F 30.3 °F 37.4 °F 100% 29.96 in 5.0 mi ENE 10.4 mph - 0.02 in Rain Rain
3:35 AM 37.4 °F 30.8 °F 37.4 °F 100% 29.97 in 10.0 mi ENE 9.2 mph - 0.06 in Rain Light Rain
3:55 AM 37.4 °F 30.8 °F 37.4 °F 100% 29.98 in 10.0 mi ENE 9.2 mph - 0.06 in   Mostly Cloudy
4:15 AM 37.4 °F 30.3 °F 37.4 °F 100% 29.97 in 7.0 mi East 10.4 mph - 0.02 in Rain Light Rain
4:35 AM 37.4 °F 33.8 °F 37.4 °F 100% 29.98 in 7.0 mi ENE 4.6 mph - 0.05 in Rain Light Rain
4:55 AM 37.4 °F 32.8 °F 37.4 °F 100% 29.98 in 10.0 mi East 5.8 mph - 0.05 in Rain Rain
5:15 AM 37.4 °F 34.9 °F 37.4 °F 100% 29.98 in 10.0 mi NE 3.5 mph - 0.01 in   Overcast
5:35 AM 37.4 °F 34.9 °F 37.4 °F 100% 30.00 in 10.0 mi East 3.5 mph - 0.01 in   Overcast
5:55 AM 37.4 °F 31.4 °F 37.4 °F 100% 29.99 in 10.0 mi East 8.1 mph - 0.01 in Rain Light Rain
6:15 AM 37.4 °F 31.4 °F 37.4 °F 100% 29.99 in 10.0 mi ENE 8.1 mph - N/A   Overcast
6:35 AM 37.4 °F 32.1 °F 37.4 °F 100% 29.99 in 10.0 mi East 6.9 mph - N/A   Mostly Cloudy
6:55 AM 37.4 °F 32.1 °F 35.6 °F 93% 30.00 in 10.0 mi ENE 6.9 mph - N/A   Scattered Clouds
7:15 AM 37.4 °F 32.1 °F 35.6 °F 93% 30.01 in 10.0 mi ENE 6.9 mph - N/A   Mostly Cloudy
7:35 AM 37.4 °F 31.4 °F 35.6 °F 93% 30.01 in 10.0 mi East 8.1 mph - N/A   Mostly Cloudy
7:55 AM 37.4 °F 30.8 °F 35.6 °F 93% 30.02 in 10.0 mi East 9.2 mph - N/A   Mostly Cloudy
8:15 AM 35.6 °F 27.5 °F 35.6 °F 100% 30.02 in 10.0 mi East 11.5 mph - N/A   Scattered Clouds
8:35 AM 35.6 °F 29.9 °F 35.6 °F 100% 30.04 in 10.0 mi ENE 6.9 mph - N/A   Scattered Clouds
8:55 AM 35.6 °F 28.0 °F 35.6 °F 100% 30.04 in 10.0 mi East 10.4 mph - N/A   Scattered Clouds
9:15 AM 37.4 °F 30.8 °F 35.6 °F 93% 30.05 in 10.0 mi East 9.2 mph - N/A   Scattered Clouds
9:35 AM 37.4 °F 29.8 °F 35.6 °F 93% 30.05 in 10.0 mi East 11.5 mph - N/A   Scattered Clouds
9:55 AM 37.4 °F 31.4 °F 35.6 °F 93% 30.06 in 10.0 mi ENE 8.1 mph - N/A   Clear
10:15 AM 39.2 °F 32.5 °F 35.6 °F 87% 30.07 in 10.0 mi ENE 10.4 mph - N/A   Scattered Clouds
10:35 AM 41.0 °F 34.7 °F 37.4 °F 87% 30.07 in 10.0 mi ENE 10.4 mph - N/A   Scattered Clouds
10:55 AM 42.8 °F 37.5 °F 37.4 °F 81% 30.08 in 10.0 mi East 9.2 mph - N/A   Clear
11:15 AM 42.8 °F 37.0 °F 37.4 °F 81% 30.08 in 10.0 mi ENE 10.4 mph - N/A   Clear
11:35 AM 42.8 °F 38.0 °F 37.4 °F 81% 30.08 in 10.0 mi East 8.1 mph - N/A   Clear
11:55 AM 44.6 °F 40.2 °F 37.4 °F 76% 30.08 in 10.0 mi ENE 8.1 mph - N/A   Clear
12:15 PM 44.6 °F 40.7 °F 37.4 °F 76% 30.08 in 10.0 mi East 6.9 mph - N/A   Clear
12:35 PM 44.6 °F 40.2 °F 37.4 °F 76% 30.08 in 10.0 mi ENE 8.1 mph - N/A   Clear
12:55 PM 46.4 °F 42.4 °F 39.2 °F 76% 30.09 in 10.0 mi ENE 8.1 mph - N/A   Clear
1:15 PM 46.4 °F 42.4 °F 37.4 °F 71% 30.09 in 10.0 mi ENE 8.1 mph - N/A   Clear
1:35 PM 44.6 °F 40.2 °F 37.4 °F 76% 30.09 in 10.0 mi ENE 8.1 mph - N/A   Clear
1:55 PM 46.4 °F 42.4 °F 37.4 °F 71% 30.09 in 10.0 mi ENE 8.1 mph - N/A   Clear
2:15 PM 46.4 °F 42.4 °F 37.4 °F 71% 30.09 in 10.0 mi ENE 8.1 mph - N/A   Clear
2:35 PM 44.6 °F 40.2 °F 37.4 °F 76% 30.09 in 10.0 mi East 8.1 mph - N/A   Clear
2:55 PM 44.6 °F 39.7 °F 35.6 °F 71% 30.09 in 10.0 mi ENE 9.2 mph - N/A   Clear
3:15 PM 44.6 °F 40.2 °F 35.6 °F 71% 30.10 in 10.0 mi NE 8.1 mph - N/A   Clear
3:35 PM 42.8 °F 36.6 °F 35.6 °F 76% 30.11 in 10.0 mi ENE 11.5 mph - N/A   Clear
3:55 PM 42.8 °F 35.8 °F 35.6 °F 76% 30.11 in 10.0 mi ENE 13.8 mph - N/A   Clear
4:15 PM 41.0 °F 33.5 °F 33.8 °F 76% 30.11 in 10.0 mi East 13.8 mph 20.7 mph N/A   Clear
4:35 PM 39.2 °F 31.2 °F 33.8 °F 81% 30.13 in 10.0 mi East 13.8 mph - N/A   Clear
4:55 PM 37.4 °F 28.5 °F 33.8 °F 87% 30.13 in 10.0 mi ENE 15.0 mph 19.6 mph N/A   Clear
5:15 PM 37.4 °F 29.3 °F 32.0 °F 81% 30.14 in 10.0 mi East 12.7 mph - N/A   Clear
5:35 PM 35.6 °F 26.2 °F 32.0 °F 87% 30.14 in 10.0 mi ENE 15.0 mph 20.7 mph N/A   Clear
5:55 PM 35.6 °F 27.1 °F 32.0 °F 87% 30.15 in 10.0 mi ENE 12.7 mph - N/A   Clear
6:15 PM 35.6 °F 27.5 °F 32.0 °F 87% 30.15 in 10.0 mi East 11.5 mph - N/A   Clear
6:35 PM 35.6 °F 27.5 °F 32.0 °F 87% 30.15 in 10.0 mi East 11.5 mph - N/A   Clear
6:55 PM 35.6 °F 27.5 °F 32.0 °F 87% 30.15 in 10.0 mi East 11.5 mph - N/A   Clear
7:15 PM 35.6 °F 28.0 °F 32.0 °F 87% 30.16 in 10.0 mi ENE 10.4 mph - N/A   Clear
7:35 PM 35.6 °F 28.0 °F 32.0 °F 87% 30.16 in 10.0 mi East 10.4 mph - N/A   Clear
7:55 PM 35.6 °F 28.6 °F 32.0 °F 87% 30.16 in 10.0 mi East 9.2 mph - N/A   Clear
8:15 PM 35.6 °F 28.0 °F 32.0 °F 87% 30.16 in 10.0 mi East 10.4 mph - N/A   Clear
8:35 PM 35.6 °F 27.5 °F 32.0 °F 87% 30.16 in 10.0 mi East 11.5 mph - N/A   Clear
8:55 PM 35.6 °F 28.0 °F 32.0 °F 87% 30.17 in 10.0 mi East 10.4 mph - N/A   Clear
9:15 PM 35.6 °F 26.6 °F 32.0 °F 87% 30.17 in 10.0 mi East 13.8 mph - N/A   Clear
9:35 PM 35.6 °F 27.1 °F 32.0 °F 87% 30.17 in 10.0 mi ENE 12.7 mph - N/A   Clear
9:55 PM 35.6 °F 26.2 °F 30.2 °F 81% 30.17 in 10.0 mi ENE 15.0 mph - N/A   Clear
10:15 PM 35.6 °F 25.9 °F 30.2 °F 81% 30.17 in 10.0 mi East 16.1 mph 20.7 mph N/A   Clear
10:35 PM 35.6 °F 25.9 °F 30.2 °F 81% 30.19 in 10.0 mi East 16.1 mph - N/A   Clear
10:55 PM 35.6 °F 25.9 °F 30.2 °F 81% 30.18 in 10.0 mi East 16.1 mph - N/A   Clear
11:15 PM 35.6 °F 26.2 °F 30.2 °F 81% 30.19 in 10.0 mi East 15.0 mph - N/A   Clear
11:35 PM 33.8 °F 23.5 °F 30.2 °F 87% 30.19 in 10.0 mi East 16.1 mph - N/A   Clear
11:55 PM 33.8 °F 23.2 °F 28.4 °F 81% 30.20 in 10.0 mi East 17.3 mph 23.0 mph N/A   Clear